Regional Weather Roundup
Issued by NWS San Angelo, TX

Home | Current Version | Previous Version | Text Only | Print | Product List | Glossary Off
Versions: 1 2 3 4 5 6 7 8 9 10 11 12 13 14 15 16 17 18 19 20 21 22 23 24 25 26 27 28 29 30 31 32 33 34 35 36 37 38 39 40 41 42 43 44 45 46 47 48 49 50

000
ASUS44 KSJT 300502
RWRSJT
WEST CENTRAL TEXAS REGIONAL WEATHER ROUNDUP
NATIONAL WEATHER SERVICE SAN ANGELO TX
1200 AM CDT WED JUL 30 2014

NOTE: "FAIR" INDICATES FEW OR NO CLOUDS BELOW 12,000 FEET WITH NO
SIGNIFICANT WEATHER AND/OR OBSTRUCTIONS TO VISIBILITY.

TXZ049-054-064>066-071>073-076>078-098-099-113-114-127-128-139-140-
154-155-168>170-300600
...LOCATIONS ACROSS WEST CENTRAL TEXAS...

CITY           SKY/WX    TMP DP  RH WIND       PRES   REMARKS
SAN ANGELO     MOCLDY    80  66  62 E10       30.08S
ABILENE        CLOUDY    75  63  66 SE14      30.07F
DYESS AFB      CLOUDY    74  66  76 SE10      30.07R
JUNCTION       CLEAR     81  69  67 E12       30.08S
SWEETWATER     MOCLDY    75  67  74 SE12      30.12S
BROWNWOOD      CLOUDY    79  59  50 E5        30.08F
COLEMAN        CLOUDY    79  66  65 SE8       30.08F
SONORA         CLEAR     82  52  34 E5        30.13R
OZONA          FAIR      81  46  30 S8        30.10S
BRADY          CLEAR     77  66  69 E6        30.10F
$$

TEXAS PANHANDLE/OKLAHOMA PANHANDLE

CITY           SKY/WX    TMP DP  RH WIND       PRES   REMARKS
AMARILLO       MOCLDY    69  60  73 SE13      30.14F
BORGER         CLOUDY    72  62  71 S14       30.11F
CANADIAN       CLOUDY    72  64  76 S10       30.09F
DALHART        CLOUDY    72  63  73 S12       30.15S
DUMAS          MOCLDY    68  62  81 SE9       30.14S
GUYMON         NOT AVBL
HEREFORD       RAIN      72  65  79 SE7       30.15F
PAMPA          RAIN      67  62  85 S13       30.14F
PERRYTON       CLOUDY    66  63  87 S8        30.12S
$$

SOUTHERN PANHANDLE/SOUTH PLAINS/ROLLING PLAINS

CITY           SKY/WX    TMP DP  RH WIND       PRES   REMARKS
LUBBOCK        CLOUDY    72  65  78 SE8       30.14S
SNYDER         MOCLDY    72  69  90 SE8       30.10F
CHILDRESS      CLOUDY    73  66  78 NE5       30.10S
SEMINOLE       PTCLDY    74  63  69 SE13      30.12F
$$

PERMIAN BASIN

CITY           SKY/WX    TMP DP  RH WIND       PRES   REMARKS
MIDLAND        PTCLDY    79  66  64 E13       30.08S
ODESSA         CLEAR     79  64  60 E13       30.10R
WINK           PTCLDY    87  50  27 S14       30.04R
$$

FAR WEST/SOUTHWEST MOUNTAINS/TRANS PECOS

CITY           SKY/WX    TMP DP  RH WIND       PRES   REMARKS
ALPINE         CLEAR     78  47  33 SE15G21   30.23R
DRYDEN           N/A     89  54  30 E10       30.04S
EL PASO        MOCLDY    82  63  51 N5          N/A
FORT STOCKTON  CLEAR     83  49  30 SE18G26   30.08S
GUADALUPE PASS CLOUDY    78  51  38 NE15      30.25S
MARFA          CLEAR     75  48  38 E14       30.22R
PECOS          NOT AVBL
$$

DALLAS/FORT WORTH METROPLEX

CITY           SKY/WX    TMP DP  RH WIND       PRES   REMARKS
DFW AIRPORT    MOCLDY    77  62  59 S3        30.05F
FTW MEACHAM    MOCLDY    77  61  57 SE5       30.05F
DAL-EXECUTIVE  MOCLDY    76  65  68 CALM      30.06S
GRAND PRAIRIE  MOCLDY    76  64  65 CALM      30.08S
ADDISON        PTCLDY    77  63  61 SE3       30.08F
MESQUITE       MOCLDY    73  68  84 CALM      30.07R
LANCASTER      MOCLDY    71  65  81 CALM      30.07S
$$

NORTH CENTRAL TEXAS

CITY           SKY/WX    TMP DP  RH WIND       PRES   REMARKS
SHRMAN/DENISON PTCLDY    76  64  64 CALM      30.08S
GAINESVILLE    MOCLDY    73  59  60 CALM      30.09F
BRIDGEPORT     MOCLDY    71  64  80 CALM      30.09S
DENTON         MOCLDY    71  63  75 CALM      30.06F
WAXAHACHIE     PTCLDY    71  62  72 CALM      30.09S
GRANBURY       MOCLDY    76  63  64 E5        30.07F
$$

WESTERN NORTH TEXAS

CITY           SKY/WX    TMP DP  RH WIND       PRES   REMARKS
WICHITA FALLS  CLOUDY    73  67  81 SE5       30.06F
VERNON         CLOUDY    74  66  75 E7        30.06F
BRECKENRIDGE   MOCLDY    82  57  42 SE7       30.06S
COMANCHE       CLOUDY    78  56  47 SE8       30.09S
$$

CENTRAL AND SOUTH CENTRAL TEXAS

CITY           SKY/WX    TMP DP  RH WIND       PRES   REMARKS
AUSTIN/BERGSTM PTCLDY    77  69  76 CALM      30.05S
WACO           PTCLDY    74  62  66 CALM      30.06S
HILLSBORO      PTCLDY    75  64  68 E8        30.07F
TEMPLE         PTCLDY    75  66  73 E6        30.07S
KILLEEN-GRAY   PTCLDY    81  70  69 E7        30.08R
FORT HOOD      CLOUDY    80  71  74 E5        30.07S
GEORGETOWN     MOCLDY    81  72  74 SE3       30.07S
LAGO VISTA     FAIR      81  69  66 SE8       30.09F
SAN MARCOS     CLEAR     81  66  61 SE6       30.07F
NEW BRAUNFELS  CLEAR     81  68  64 SE6       30.05R
RANDOLPH AFB   CLEAR     81  67  64 E6        30.06R
SAN ANTONIO    MOCLDY    84  63  49 SE10      30.06R
STINSON        CLEAR     84  62  47 SE9       30.04R
PLEASANTON     NOT AVBL
LA GRANGE      PTCLDY    80  74  82 CALM      30.04R
GIDDINGS       CLEAR     77  71  81 CALM      30.09F
$$

EAST TEXAS

CITY           SKY/WX    TMP DP  RH WIND       PRES   REMARKS
PARIS          MOCLDY    77  63  61 SE3       30.08S
CLARKSVILLE    MOCLDY    77  67  71 SE3       30.07S
TYLER          CLEAR     79  67  66 E3        30.07S
LONGVIEW       CLEAR     75  67  76 E5        30.06S
PALESTINE      NOT AVBL
NACOGDOCHES    CLEAR     73  70  88 E3        30.07S
$$

TEXAS HILL COUNTRY AND EDWARDS PLATEAU

CITY           SKY/WX    TMP DP  RH WIND       PRES   REMARKS
LLANO          NOT AVBL
HORSESHOE BAY  FAIR      80  67  63 SE6       30.08S
KERRVILLE      PTCLDY    82  70  68 E9        30.09S
FREDERICKSBRG  CLEAR     79  65  62 E5        30.11R
ROCKSPRINGS    NOT AVBL
HONDO          CLEAR     83  59  44 SE10      30.05R
UVALDE         CLEAR     84  58  41 E7        30.04R
DEL RIO        CLEAR     88  55  32 E7        29.99R
$$

SOUTHEAST TEXAS

CITY           SKY/WX    TMP DP  RH WIND       PRES   REMARKS
COLLEGE STN    PTCLDY    79  71  76 E5        30.06R
CALDWELL       NOT AVBL
CROCKETT       NOT AVBL
BRENHAM        NOT AVBL
HUNTSVILLE     PTCLDY    75  68  78 CALM      30.06R
CONROE         CLEAR     74  72  93 CALM      30.07R
HOUSTON BUSH   CLEAR     75  74  96 CALM      30.05R
HOUSTON HOBBY  PTCLDY    78  73  84 CALM      30.04R
PERLAND        PTCLDY    78  73  84 CALM      30.05S
WHARTON        MOCLDY    74  72  95 CALM      30.05S
$$

THE UPPER TEXAS COAST

CITY           SKY/WX    TMP DP  RH WIND       PRES   REMARKS
ORANGE         CLEAR     73  73 100 CALM      30.06S
PORT ARTHUR    CLEAR     77  70  79 E3        30.04S
GALVESTON      PTCLDY    82  72  71 CALM      30.05S
ANGLETON       MOCLDY    74  72  93 CALM      30.04R
BAY CITY       MOCLDY    76  76 100 CALM      30.04S
$$

TEXAS COASTAL BEND, RIO GRANDE PLAINS DEEP SOUTH TEXAS

CITY           SKY/WX    TMP DP  RH WIND       PRES   REMARKS
VICTORIA       PTCLDY    80  74  81 SE5       30.05R
BEEVILLE       FAIR      77  74  90 E5        30.04S
ROCKPORT       PTCLDY    82  75  79 S8        30.03R
PORT ARANSAS   PTCLDY    80  76  87 SE7       30.03F
PORT LAVACA    MOCLDY    78  74  89 CALM      30.03S
CORPUS CHRISTI MOCLDY    79  74  84 SE8       30.03R
KINGSVILLE NAS PTCLDY    80  76  87 S13       30.03S
COTULLA        CLEAR     86  63  45 SE10      30.01R
LAREDO         CLEAR     87  69  54 SE16      30.03R
BROWNSVILLE    CLEAR     79  75  87 SE5       30.04R
PORT ISABEL    CLEAR     82  75  79 SE6       30.04R
HEBBRONVILLE   NOT AVBL
MCALLEN        CLEAR     82  75  79 SE12      30.04R
WESLACO        NOT AVBL
FALFURRIAS     CLEAR     71  69  95 SE5       30.03R
EDINBURG       CLEAR     82  74  75 SE10      30.04R
$$



USA.gov is the U.S. government's official web portal to all federal, state and local government web resources and services.